User: anonymous   Login
Location: Bangkok
(13.7500°N, 100.5170°E)
Time: 10:39:29
(UTC+07:00)
Language:

SPOT 1/Viking Rocket - Orbit

View from above orbital plane
View from above orbital plane
View from above satellite
View from above satellite

Ground track
Ground track

The orbit data is extracted from the following two-line orbital elements,

1 16615U 86019C   16179.82746284  .00000018  00000-0  23505-4 0  9996
2 16615  98.6575 242.9615 0011924  14.3886  99.2917 14.31599210588796
Epoch (UTC): 27 June 2016 19:51:32
Eccentricity: 0.0011924
inclination: 98.6575°
perigee height: 778 km
apogee height: 795 km
right ascension of ascending node: 242.9615°
argument of perigee: 14.3886°
revolutions per day: 14.31599210
mean anomaly at epoch: 99.2917°
orbit number at epoch: 58879

The dashed part of the orbit path shows where the satellite is in the earth's shadow,  

DLR